Location: Barcelona
(41.3830°N, 2.1830°E)
Time: 01:11:10
(UTC+02:00)

ISS - Pass Details

Date: 16 July 2019
Orbit: 409 x 418 km, 51.6° (Epoch: 23 July)

Event Time Altitude Azimuth Distance (km) Brightness Sun altitude
Rises 04:43:00 0° 309° (NW) 2,345 0.0 -16.4°
Reaches altitude 10° 04:45:16 10° 321° (NW) 1,480 -0.9 -16.1°
Maximum altitude 04:48:13 29° 24° (NNE) 784 -1.6 -15.8°
Drops below altitude 10° 04:51:10 10° 87° (E) 1,472 -0.4 -15.4°
Sets 04:53:25 0° 99° (E) 2,330 0.5 -15.1°
